METEOR-M2 3

Last updated on Tue Sep 16 2025 00:02:22 GMT+0000 (Coordinated Universal Time)

1 57166U 23091A 25258.65115087 -.00000011 00000+0 14341-4 0 9994 2 57166 98.6517 313.6634 0002958 239.3131 120.7756 14.24010203115445
UTC large
Height (km)
Speed (km/s)
/
Latitude / Longitude
Inclination (degrees)
Orbital Period (minutes)
Azimuth
Elevation
Range (km)
Doppler Factor

Next 0 passes for location: London (51.5072 / 0.1276)

Sorry there are no passes over London.